�������l�o���
Date,Time,MP-1(��Sv/h),MP-2(��Sv/h),MP-3(��Sv/h),MP-4(��Sv/h),MP-5(��Sv/h),MP-6(��Sv/h),MP-7(��Sv/h),MP-8(��Sv/h),����,����(m/s),���J
2017/02/09,00:00,1.073,1.802,1.172,2.062,1.433,0.559,1.028,0.953,�k��,5.9,��
2017/02/09,00:10,1.072,1.802,1.173,2.061,1.433,0.562,1.029,0.954,�k�k��,2.9,��
2017/02/09,00:20,1.074,1.804,1.174,2.061,1.432,0.562,1.028,0.955,�k,1.4,��
2017/02/09,00:30,1.072,1.801,1.174,2.063,1.431,0.562,1.027,0.953,�k,2.2,��
2017/02/09,00:40,1.071,1.799,1.173,2.065,1.434,0.562,1.027,0.953,�k�k��,2.6,��
2017/02/09,00:50,1.071,1.800,1.175,2.062,1.431,0.560,1.027,0.953,�k��,4.2,��
2017/02/09,01:00,1.072,1.799,1.175,2.064,1.433,0.561,1.027,0.951,�k��,4.6,��
2017/02/09,01:10,1.071,1.798,1.173,2.065,1.433,0.561,1.028,0.952,�k��,3.6,��
2017/02/09,01:20,1.075,1.800,1.175,2.061,1.430,0.563,1.028,0.954,���k��,3.4,��
2017/02/09,01:30,1.071,1.802,1.174,2.062,1.434,0.562,1.028,0.953,���k��,5.4,��
2017/02/09,01:40,1.071,1.804,1.173,2.062,1.431,0.561,1.027,0.953,���k��,5.0,��
2017/02/09,01:50,1.071,1.799,1.174,2.059,1.433,0.563,1.029,0.953,���k��,4.9,��
2017/02/09,02:00,1.070,1.801,1.172,2.061,1.430,0.562,1.030,0.953,���k��,4.4,��
2017/02/09,02:10,1.071,1.802,1.174,2.062,1.431,0.560,1.029,0.950,�k��,3.8,��
2017/02/09,02:20,1.073,1.802,1.175,2.062,1.432,0.560,1.027,0.954,�k��,3.6,��
2017/02/09,02:30,1.072,1.799,1.173,2.065,1.430,0.561,1.027,0.951,�k��,3.8,��
2017/02/09,02:40,1.073,1.801,1.174,2.061,1.434,0.560,1.028,0.952,�k��,4.0,��
2017/02/09,02:50,1.071,1.801,1.172,2.065,1.432,0.562,1.026,0.955,�k��,4.6,��
2017/02/09,03:00,1.072,1.800,1.172,2.063,1.431,0.563,1.026,0.951,�k��,4.5,��
2017/02/09,03:10,1.071,1.798,1.174,2.063,1.433,0.562,1.028,0.953,�k��,4.0,��
2017/02/09,03:20,1.074,1.800,1.176,2.061,1.431,0.561,1.027,0.954,�k��,3.1,��
2017/02/09,03:30,1.073,1.801,1.174,2.062,1.432,0.561,1.029,0.954,���k��,2.3,��
2017/02/09,03:40,1.072,1.802,1.172,2.065,1.435,0.561,1.029,0.954,�k��,2.3,��
2017/02/09,03:50,1.071,1.798,1.172,2.062,1.431,0.562,1.028,0.954,�k��,2.5,��
2017/02/09,04:00,1.072,1.797,1.173,2.063,1.435,0.562,1.027,0.954,���k��,2.8,��
2017/02/09,04:10,1.070,1.795,1.174,2.061,1.429,0.561,1.029,0.953,���k��,2.0,��
2017/02/09,04:20,1.070,1.799,1.172,2.061,1.432,0.562,1.028,0.953,���k��,1.9,��
2017/02/09,04:30,1.072,1.799,1.175,2.063,1.433,0.562,1.028,0.953,���k��,1.5,��
2017/02/09,04:40,1.071,1.799,1.172,2.062,1.432,0.563,1.027,0.954,���k��,1.4,��
2017/02/09,04:50,1.070,1.798,1.173,2.061,1.432,0.561,1.029,0.954,��,1.7,��
2017/02/09,05:00,1.072,1.798,1.174,2.058,1.432,0.562,1.028,0.952,��,1.7,��
2017/02/09,05:10,1.072,1.801,1.173,2.058,1.432,0.562,1.026,0.952,���k��,1.5,��
2017/02/09,05:20,1.069,1.799,1.172,2.062,1.433,0.561,1.028,0.952,���k��,2.5,��
2017/02/09,05:30,1.072,1.799,1.174,2.064,1.434,0.562,1.029,0.952,�k��,2.3,��
2017/02/09,05:40,1.073,1.799,1.174,2.060,1.431,0.561,1.027,0.952,�k��,2.9,��
2017/02/09,05:50,1.071,1.802,1.173,2.062,1.433,0.560,1.027,0.954,�k��,3.5,��
2017/02/09,06:00,1.073,1.801,1.173,2.062,1.432,0.561,1.026,0.954,�k��,4.0,��
2017/02/09,06:10,1.072,1.800,1.173,2.064,1.430,0.563,1.027,0.952,�k��,3.8,��
2017/02/09,06:20,1.072,1.799,1.171,2.060,1.432,0.562,1.028,0.952,���k��,3.3,��
2017/02/09,06:30,1.072,1.799,1.170,2.065,1.433,0.559,1.028,0.952,��,3.4,��
2017/02/09,06:40,1.073,1.799,1.174,2.062,1.431,0.561,1.028,0.951,���쐼,2.6,��
2017/02/09,06:50,1.073,1.800,1.174,2.060,1.432,0.562,1.025,0.955,�쐼,3.9,��
2017/02/09,07:00,1.071,1.799,1.172,2.063,1.432,0.561,1.026,0.953,�쐼,3.4,��
2017/02/09,07:10,1.073,1.800,1.172,2.062,1.431,0.562,1.028,0.954,�쐼,3.7,��
2017/02/09,07:20,1.073,1.804,1.173,2.062,1.430,0.562,1.026,0.953,�쐼,1.9,��
2017/02/09,07:30,1.073,1.802,1.172,2.063,1.434,0.560,1.028,0.952,���쐼,2.9,��
2017/02/09,07:40,1.073,1.801,1.169,2.063,1.433,0.561,1.028,0.953,�쐼,2.6,��
2017/02/09,07:50,1.071,1.800,1.175,2.063,1.430,0.561,1.027,0.953,��쐼,3.1,��
2017/02/09,08:00,1.074,1.801,1.174,2.065,1.434,0.562,1.029,0.953,��쐼,3.2,��
2017/02/09,08:10,1.071,1.798,1.175,2.066,1.434,0.562,1.027,0.953,��,2.6,�L
2017/02/09,08:20,1.071,1.797,1.173,2.061,1.431,0.562,1.029,0.954,��,2.6,��
2017/02/09,08:30,1.072,1.796,1.173,2.062,1.432,0.561,1.027,0.951,��쓌,2.0,�L
2017/02/09,08:40,1.073,1.801,1.176,2.065,1.430,0.563,1.027,0.952,��쓌,2.0,�L
2017/02/09,08:50,1.073,1.801,1.176,2.065,1.430,0.561,1.027,0.950,��,1.2,�L
2017/02/09,09:00,1.071,1.797,1.175,2.064,1.430,0.563,1.028,0.951,�쐼,0.9,��
2017/02/09,09:10,1.071,1.804,1.176,2.063,1.430,0.563,1.028,0.950,���쐼,0.9,�L
2017/02/09,09:20,1.073,1.798,1.174,2.067,1.428,0.562,1.027,0.953,�k��,0.6,�L
2017/02/09,09:30,1.074,1.784,1.175,2.065,1.429,0.561,1.026,0.951,�k��,0.6,�L
2017/02/09,09:40,1.070,1.781,1.172,2.062,1.429,0.564,1.026,0.952,�k�k��,1.1,�L
2017/02/09,09:50,1.072,1.784,1.168,2.062,1.427,0.563,1.026,0.950,���k��,1.1,�L
2017/02/09,10:00,1.069,1.794,1.167,2.058,1.424,0.561,1.026,0.951,�k��,2.3,�L
2017/02/09,10:10,1.067,1.790,1.166,2.055,1.423,0.562,1.025,0.949,��,0.8,�L
2017/02/09,10:20,1.069,1.790,1.163,2.058,1.420,0.561,1.025,0.950,�k��,2.3,�L
2017/02/09,10:30,1.066,1.785,1.162,2.055,1.417,0.561,1.025,0.952,�k�k��,3.1,�L
2017/02/09,10:40,1.064,1.783,1.161,2.053,1.417,0.561,1.024,0.950,�k�k��,3.0,�L
2017/02/09,10:50,1.063,1.780,1.161,2.052,1.415,0.561,1.024,0.949,�k�k��,3.7,�L
2017/02/09,11:00,1.061,1.780,1.161,2.049,1.413,0.561,1.023,0.948,�k�k��,3.5,�L
2017/02/09,11:10,1.062,1.776,1.160,2.046,1.409,0.559,1.022,-,�k�k��,3.5,�L
2017/02/09,11:20,1.059,1.774,1.159,2.045,1.410,0.560,1.023,-,�k�k��,3.9,�L
2017/02/09,11:30,1.059,1.770,1.158,2.044,1.410,0.558,1.022,-,�k�k��,4.4,�L
2017/02/09,11:40,1.058,1.771,1.157,2.044,1.404,0.560,1.021,-,�k�k��,3.3,�L
2017/02/09,11:50,1.057,1.767,1.156,2.039,1.406,0.560,1.021,-,�k�k��,3.4,�L
2017/02/09,12:00,1.056,1.762,1.152,2.038,1.403,0.559,1.019,-,�k�k��,3.6,�L
2017/02/09,12:10,1.055,1.763,1.154,2.033,1.400,0.556,1.018,-,�k�k��,4.0,�L
2017/02/09,12:20,1.054,1.756,1.154,2.029,1.398,0.557,1.020,-,�k�k��,3.9,�L
2017/02/09,12:30,1.054,1.758,1.154,2.031,1.397,0.558,1.017,-,�k,3.6,�L
2017/02/09,12:40,1.053,1.753,1.152,2.027,1.398,0.557,1.017,-,�k�k��,3.6,�L
2017/02/09,12:50,1.053,1.757,1.154,2.027,1.398,0.558,1.018,-,�k�k��,3.7,�L
2017/02/09,13:00,1.053,1.753,1.151,2.026,1.397,0.556,1.018,-,�k�k��,3.5,�L
2017/02/09,13:10,1.054,1.753,1.151,2.028,1.395,0.558,1.016,-,�k�k��,3.7,�L
2017/02/09,13:20,1.052,1.755,1.154,2.024,1.394,0.557,1.015,-,�k�k��,4.2,�L
2017/02/09,13:30,1.050,1.753,1.152,2.023,1.394,0.557,1.016,-,�k�k��,4.3,�L
2017/02/09,13:40,1.048,1.749,1.150,2.021,1.392,0.557,1.018,-,�k��,4.5,�L
2017/02/09,13:50,1.050,1.748,1.147,2.023,1.392,0.555,1.017,-,�k��,3.2,�L
2017/02/09,14:00,1.049,1.744,1.148,2.017,1.386,0.556,1.016,-,�k�k��,3.6,�L
2017/02/09,14:10,1.049,1.743,1.146,2.016,1.388,0.556,1.016,-,�k��,3.5,�L
2017/02/09,14:20,1.046,1.743,1.146,2.013,1.389,0.555,1.017,-,�k�k��,3.7,�L
2017/02/09,14:30,1.046,1.742,1.143,2.013,1.387,0.555,1.017,-,�k�k��,2.6,�L
2017/02/09,14:40,1.045,1.736,1.141,2.011,1.385,0.555,1.016,-,�k��,3.5,�L
2017/02/09,14:50,1.044,1.739,1.144,2.007,1.384,0.556,1.013,-,�k��,4.7,�L
2017/02/09,15:00,1.043,1.738,1.143,2.008,1.382,0.556,1.012,-,�k��,4.1,�L
2017/02/09,15:10,1.042,1.736,1.141,2.005,1.384,0.554,1.018,-,�k��,3.8,�L
2017/02/09,15:20,1.043,1.735,1.142,2.004,1.379,0.554,1.014,-,�k��,4.1,�L
2017/02/09,15:30,1.041,1.734,1.141,2.002,1.380,0.555,1.014,-,�k��,3.3,�L
2017/02/09,15:40,1.039,1.734,1.138,2.001,1.377,0.555,1.013,-,�k��,4.5,�L
2017/02/09,15:50,1.040,1.728,1.135,1.996,1.379,0.554,1.011,-,�k��,4.9,�L
2017/02/09,16:00,1.037,1.731,1.136,1.993,1.376,0.554,1.012,-,�k��,4.8,�L
2017/02/09,16:10,1.036,1.724,1.137,1.993,1.372,0.554,1.013,0.945,�k��,5.2,�L
2017/02/09,16:20,1.035,1.725,1.134,1.990,1.370,0.556,1.011,0.939,�k��,5.2,�L
2017/02/09,16:30,1.033,1.722,1.133,1.988,1.371,0.553,1.009,0.939,�k��,4.7,�L
2017/02/09,16:40,1.034,1.718,1.133,1.985,1.370,0.554,1.011,0.940,�k��,5.9,�L
2017/02/09,16:50,1.030,1.718,1.134,1.983,1.370,0.553,1.009,0.938,�k��,5.7,�L
2017/02/09,17:00,1.033,1.721,1.132,1.984,1.369,0.553,1.010,0.938,�k��,7.3,�L
2017/02/09,17:10,1.032,1.720,1.129,1.980,1.369,0.551,1.010,0.939,�k�k��,7.0,�L
2017/02/09,17:20,1.030,1.720,1.134,1.981,1.368,0.552,1.012,0.938,�k��,6.8,�L
2017/02/09,17:30,1.031,1.721,1.133,1.980,1.365,0.552,1.008,0.937,�k�k��,6.7,�L
2017/02/09,17:40,1.030,1.718,1.131,1.977,1.368,0.552,1.011,0.938,�k��,8.0,�L
2017/02/09,17:50,1.029,1.714,1.129,1.974,1.364,0.552,1.008,0.937,�k��,7.5,�L
2017/02/09,18:00,1.028,1.715,1.127,1.974,1.362,0.554,1.008,0.935,�k�k��,7.3,�L
2017/02/09,18:10,1.027,1.712,1.127,1.972,1.363,0.551,1.009,0.936,�k�k��,7.9,�L
2017/02/09,18:20,1.025,1.710,1.127,1.968,1.361,0.550,1.009,0.936,�k�k��,8.6,�L
2017/02/09,18:30,1.023,1.712,1.124,1.967,1.360,0.550,1.006,0.936,�k��,6.6,�L
2017/02/09,18:40,1.021,1.702,1.124,1.962,1.354,0.551,1.008,0.935,�k�k��,7.3,�L
2017/02/09,18:50,1.019,1.704,1.121,1.961,1.353,0.549,1.006,0.936,�k�k��,9.4,�L
2017/02/09,19:00,1.018,1.700,1.118,1.958,1.350,0.548,1.004,0.934,�k�k��,8.3,�L
2017/02/09,19:10,1.016,1.698,1.114,1.951,1.345,0.547,1.003,0.932,�k�k��,7.7,�L
2017/02/09,19:20,1.010,1.689,1.112,1.946,1.340,0.548,1.000,0.932,�k�k��,8.9,�L
2017/02/09,19:30,1.008,1.685,1.109,1.939,1.334,0.546,0.997,0.929,�k�k��,8.6,�L
2017/02/09,19:40,1.003,1.675,1.105,1.931,1.329,0.546,0.996,0.930,�k�k��,8.7,�L
2017/02/09,19:50,1.003,1.675,1.102,1.928,1.325,0.544,0.997,0.930,�k�k��,8.4,�L
2017/02/09,20:00,1.002,1.673,1.100,1.926,1.324,0.544,0.992,0.930,�k�k��,8.7,�L
2017/02/09,20:10,1.000,1.674,1.102,1.926,1.322,0.543,0.995,0.930,�k�k��,9.1,�L
2017/02/09,20:20,1.003,1.671,1.102,1.924,1.322,0.545,0.997,0.931,�k�k��,8.3,�L
2017/02/09,20:30,1.005,1.672,1.103,1.925,1.320,0.544,0.995,0.931,�k�k��,8.6,�L
2017/02/09,20:40,1.004,1.673,1.103,1.925,1.318,0.544,0.996,0.931,�k�k��,8.5,�L
2017/02/09,20:50,1.003,1.675,1.104,1.924,1.319,0.545,0.996,0.931,�k�k��,9.3,�L
2017/02/09,21:00,1.005,1.673,1.103,1.924,1.320,0.545,0.999,0.930,�k�k��,9.0,�L
2017/02/09,21:10,1.004,1.673,1.103,1.921,1.315,0.545,0.997,0.933,�k�k��,7.8,�L
2017/02/09,21:20,1.008,1.672,1.103,1.920,1.314,0.545,0.997,0.932,�k�k��,8.7,�L
2017/02/09,21:30,1.000,1.666,1.101,1.915,1.311,0.545,0.997,0.929,�k�k��,8.6,�L
2017/02/09,21:40,0.999,1.668,1.101,1.918,1.311,0.545,0.994,0.930,�k�k��,8.7,�L
2017/02/09,21:50,0.998,1.665,1.097,1.913,1.307,0.545,0.994,0.929,�k�k��,7.5,�L
2017/02/09,22:00,0.997,1.657,1.093,1.912,1.299,0.544,0.991,0.927,�k�k��,7.4,�L
2017/02/09,22:10,0.994,1.654,1.091,1.906,1.297,0.542,0.993,0.926,�k�k��,9.7,�L
2017/02/09,22:20,0.992,1.652,1.093,1.908,1.295,0.545,0.992,0.927,�k�k��,10.5,�L
2017/02/09,22:30,0.994,1.649,1.090,1.905,1.294,0.543,0.994,0.927,�k�k��,9.0,�L
2017/02/09,22:40,0.994,1.652,1.093,1.909,1.296,0.543,0.995,0.930,�k�k��,9.8,�L
2017/02/09,22:50,0.993,1.655,1.094,1.906,1.297,0.543,0.994,0.929,�k�k��,10.4,�L
2017/02/09,23:00,0.994,1.658,1.095,1.912,1.295,0.543,0.996,0.930,�k�k��,9.1,�L
2017/02/09,23:10,0.995,1.656,1.098,1.913,1.294,0.541,0.995,0.929,�k�k��,10.7,�L
2017/02/09,23:20,0.996,1.659,1.095,1.913,1.296,0.541,0.996,0.928,�k��,9.7,�L
2017/02/09,23:30,0.996,1.656,1.099,1.913,1.298,0.542,0.997,0.929,�k�k��,9.3,�L
2017/02/09,23:40,0.997,1.661,1.094,1.911,1.298,0.543,0.999,0.930,�k�k��,9.3,�L
2017/02/09,23:50,0.997,1.661,1.097,1.915,1.299,0.543,0.997,0.930,�k�k��,9.9,�L
